User: anonymous   Login
Location: Wildlife_Club
(35.6000°N, 81.4330°W)
Time: 19:59:33
(UTC-05:00)
Language:

Cosmos 1782 - Orbit

View from above orbital plane
View from above orbital plane
View from above satellite
View from above satellite

Ground track
Ground track

The orbit data is extracted from the following two-line orbital elements,

1 16986U 86074A   18052.89221280 -.00000063 +00000-0 -61847-5 0  9995
2 16986 082.5042 238.2663 0010604 197.0927 162.9945 15.06791963687272
Epoch (UTC): 21 February 2018 21:24:47
Eccentricity: 0.0010604
inclination: 82.5042°
perigee height: 538 km
apogee height: 553 km
right ascension of ascending node: 238.2663°
argument of perigee: 197.0927°
revolutions per day: 15.06791963
mean anomaly at epoch: 162.9945°
orbit number at epoch: 68727

The dashed part of the orbit path shows where the satellite is in the earth's shadow,  

DLR